Weather History for KMXF - December, 2013

Change the Weather History Date:

Thursday, December 19, 2013

  Actual Average Record
Temperature  
Mean Temperature 48 °F -  
Max Temperature 64 °F 57 °F 78 °F (2006)
Min Temperature 31 °F 38 °F 23 °F (1996)
Degree Days  
Heating Degree Days 18    
Moisture  
Dew Point 34 °F    
Average Humidity 75    
Maximum Humidity 100    
Minimum Humidity 29    
Precipitation  
Precipitation 0.00 in - - ()
Sea Level Pressure  
Sea Level Pressure 30.25 in    
Wind  
Wind Speed 2 mph (NE)    
Max Wind Speed 6 mph    
Max Gust Speed -    
Visibility 8 miles    
Events      
Averages and records for this station are not official NWS values.
T = Trace of Precipitation, MM = Missing Value Source: NWS Daily Summary

Daily Weather History Graph

Daily Weather History Graph

Search for Another Location

Airport or City:

Trip Planner

Search our weather history database for the weather conditions in past years. The results will help you decide how hot, cold, wet, or windy it might be!

Date:

Astronomy

Dec. 19, 2013 Rise Set
Actual Time 6:41 AM CST 4:43 PM CST
Civil Twilight 6:14 AM CST 5:10 PM CST
Nautical Twilight 5:44 AM CST 5:41 PM CST
Astronomical Twilight 5:14 AM CST 6:11 PM CST
Moon 7:01 PM CST (12/19) 8:06 AM CST (12/19)
Length of Visible Light 10h 55m
Length of Day
10h 01m
Waning Gibbous, 95% of the Moon is Illuminated
Dec 19
Waning Gibbous
Dec 25
Last Quarter
Jan 1
New
Jan 7
First Quarter
Jan 15
Full

Hourly Weather History & Observations

Time (CST) Temp. Windchill Dew Point Humidity Pressure Visibility Wind Dir Wind Speed Gust Speed Precip Events Conditions
12:48 AM 33.8 °F - 32.0 °F 93% 30.27 in 1.8 mi Calm Calm - N/A   Clear
12:53 AM 32.0 °F - 32.0 °F 100% 30.27 in 1.5 mi NE 1.2 mph - N/A   Clear
12:58 AM 32.0 °F - 32.0 °F 100% 30.28 in 1.8 mi Calm Calm - N/A   Clear
1:03 AM 32.0 °F - 32.0 °F 100% 30.27 in 2.0 mi ENE 1.2 mph - N/A   Clear
1:08 AM 33.8 °F - 33.8 °F 100% 30.27 in 6.0 mi NE 1.2 mph - N/A   Clear
1:58 AM 34.9 °F - 34.3 °F 98% 30.28 in 7.0 mi North 2.3 mph - N/A   Clear
2:58 AM 32.5 °F - 31.8 °F 97% 30.28 in 8.0 mi Calm Calm - N/A   Clear
3:58 AM 32.9 °F - 32.4 °F 98% 30.28 in 10.0 mi NNE 2.3 mph - N/A   Clear
4:58 AM 32.9 °F 29.8 °F 32.4 °F 98% 30.28 in 10.0 mi NNE 3.5 mph - N/A   Clear
5:58 AM 33.6 °F - 30.7 °F 89% 30.30 in 10.0 mi NNE 2.3 mph - N/A   Clear
6:58 AM 31.5 °F 28.1 °F 30.4 °F 96% 30.32 in 10.0 mi NNW 3.5 mph - N/A   Clear
7:58 AM 38.3 °F 34.8 °F 33.8 °F 84% 30.32 in 10.0 mi ENE 4.6 mph - N/A   Clear
8:58 AM 43.5 °F 40.1 °F 34.3 °F 70% 30.33 in 10.0 mi NNE 5.8 mph - N/A   Clear
9:58 AM 49.8 °F - 35.6 °F 58% 30.32 in 10.0 mi Variable 2.3 mph - N/A   Clear
10:58 AM 57.2 °F - 31.1 °F 37% 30.30 in 10.0 mi Variable 5.8 mph - N/A   Clear
11:58 AM 61.5 °F - 31.3 °F 32% 30.26 in 10.0 mi South 5.8 mph - N/A   Clear
12:58 PM 62.8 °F - 31.8 °F 31% 30.23 in 10.0 mi Variable 1.2 mph - N/A   Clear
1:58 PM 64.8 °F - 31.5 °F 29% 30.21 in 10.0 mi Variable 1.2 mph - N/A   Clear
2:58 PM 64.8 °F - 31.6 °F 29% 30.20 in 10.0 mi NNE 3.5 mph - N/A   Clear
3:58 PM 60.6 °F - 34.7 °F 38% 30.19 in 10.0 mi NE 3.5 mph - N/A   Clear
4:58 PM 57.9 °F - 33.8 °F 40% 30.19 in 10.0 mi Variable 1.2 mph - N/A   Clear
5:58 PM 50.5 °F - 40.5 °F 68% 30.19 in 6.0 mi South 1.2 mph - N/A   Haze
6:58 PM 46.9 °F - 37.9 °F 71% 30.20 in 10.0 mi NW 2.3 mph - N/A   Clear
7:58 PM 43.5 °F - 37.6 °F 80% 30.20 in 10.0 mi SE 1.2 mph - N/A   Clear
8:58 PM 43.0 °F - 37.9 °F 82% 30.19 in 10.0 mi Calm Calm - N/A   Clear
9:58 PM 42.3 °F - 39.0 °F 88% 30.19 in 10.0 mi Calm Calm - N/A   Clear
10:58 PM 41.9 °F - 40.3 °F 94% 30.17 in 10.0 mi Calm Calm - N/A   Clear
11:58 PM 40.5 °F 37.3 °F 39.6 °F 97% 30.17 in 9.0 mi NE 4.6 mph - N/A   Clear